�������l�o���
Date,Time,MP-1(��Sv/h),MP-2(��Sv/h),MP-3(��Sv/h),MP-4(��Sv/h),MP-5(��Sv/h),MP-6(��Sv/h),MP-7(��Sv/h),����,����(m/s),���J
2021/03/16,00:00,0.173,0.153,0.251,0.237,0.235,0.135,0.083,�쓌,0.8,��
2021/03/16,00:10,0.173,0.153,0.250,0.237,0.235,0.135,0.083,-,CALM,��
2021/03/16,00:20,0.172,0.153,0.251,0.237,0.235,0.134,0.082,�k��,1.1,��
2021/03/16,00:30,0.171,0.153,0.250,0.238,0.235,0.135,0.083,-,CALM,��
2021/03/16,00:40,0.172,0.155,0.250,0.237,0.234,0.135,0.083,-,CALM,��
2021/03/16,00:50,0.172,0.153,0.251,0.238,0.235,0.134,0.082,-,CALM,��
2021/03/16,01:00,0.173,0.154,0.252,0.238,0.235,0.135,0.083,-,CALM,��
2021/03/16,01:10,0.172,0.153,0.250,0.237,0.235,0.135,0.083,-,CALM,��
2021/03/16,01:20,0.171,0.154,0.250,0.237,0.236,0.135,0.083,-,CALM,��
2021/03/16,01:30,0.173,0.153,0.252,0.236,0.234,0.135,0.082,-,CALM,��
2021/03/16,01:40,0.173,0.154,0.250,0.237,0.234,0.135,0.082,��,1.9,��
2021/03/16,01:50,0.172,0.153,0.251,0.237,0.234,0.135,0.083,���쐼,1.0,��
2021/03/16,02:00,0.172,0.153,0.249,0.237,0.235,0.135,0.082,��,1.3,��
2021/03/16,02:10,0.172,0.154,0.250,0.237,0.234,0.135,0.083,�쓌,1.0,��
2021/03/16,02:20,0.172,0.154,0.251,0.236,0.234,0.135,0.083,�쓌,1.8,��
2021/03/16,02:30,0.172,0.154,0.250,0.237,0.236,0.134,0.084,��쓌,1.0,��
2021/03/16,02:40,0.172,0.153,0.250,0.237,0.236,0.135,0.082,��쐼,1.0,��
2021/03/16,02:50,0.173,0.153,0.251,0.238,0.235,0.135,0.083,��쐼,4.1,��
2021/03/16,03:00,0.172,0.154,0.251,0.236,0.234,0.136,0.083,��,5.1,��
2021/03/16,03:10,0.173,0.153,0.250,0.236,0.236,0.135,0.084,��쓌,4.1,��
2021/03/16,03:20,0.172,0.153,0.250,0.237,0.235,0.135,0.083,��쓌,3.7,��
2021/03/16,03:30,0.173,0.154,0.251,0.236,0.234,0.136,0.083,��쓌,3.5,��
2021/03/16,03:40,0.173,0.154,0.251,0.236,0.234,0.135,0.083,��쓌,3.2,��
2021/03/16,03:50,0.174,0.153,0.251,0.238,0.234,0.135,0.084,��쓌,3.0,��
2021/03/16,04:00,0.173,0.154,0.251,0.238,0.235,0.135,0.083,��쓌,3.2,��
2021/03/16,04:10,0.172,0.154,0.252,0.237,0.235,0.135,0.083,��,3.1,��
2021/03/16,04:20,0.173,0.153,0.251,0.237,0.236,0.135,0.083,��,2.5,��
2021/03/16,04:30,0.173,0.154,0.251,0.238,0.235,0.135,0.083,��쓌,2.7,��
2021/03/16,04:40,0.173,0.155,0.250,0.238,0.235,0.136,0.083,��쓌,1.8,��
2021/03/16,04:50,0.173,0.154,0.251,0.237,0.235,0.136,0.084,��,1.2,��
2021/03/16,05:00,0.172,0.154,0.252,0.238,0.236,0.135,0.082,��쓌,1.8,��
2021/03/16,05:10,0.173,0.154,0.251,0.237,0.235,0.135,0.083,��쐼,2.2,��
2021/03/16,05:20,0.173,0.154,0.252,0.239,0.235,0.136,0.082,�쐼,3.8,��
2021/03/16,05:30,0.172,0.154,0.250,0.238,0.236,0.135,0.083,��쐼,3.1,��
2021/03/16,05:40,0.173,0.153,0.251,0.237,0.235,0.135,0.083,��,2.4,��
2021/03/16,05:50,0.174,0.153,0.252,0.238,0.235,0.136,0.084,��,1.9,��
2021/03/16,06:00,0.174,0.155,0.252,0.239,0.234,0.135,0.084,��쓌,2.1,��
2021/03/16,06:10,0.173,0.154,0.251,0.238,0.235,0.135,0.083,��쓌,3.0,��
2021/03/16,06:20,0.172,0.153,0.251,0.237,0.236,0.135,0.083,��,1.9,��
2021/03/16,06:30,0.173,0.154,0.251,0.237,0.234,0.135,0.083,��,1.5,��
2021/03/16,06:40,0.173,0.155,0.251,0.237,0.235,0.135,0.084,�쐼,1.7,��
2021/03/16,06:50,0.172,0.154,0.252,0.237,0.237,0.135,0.084,��,1.8,��
2021/03/16,07:00,0.173,0.153,0.251,0.238,0.236,0.135,0.083,��,2.7,��
2021/03/16,07:10,0.173,0.154,0.252,0.237,0.236,0.136,0.083,��쓌,3.3,��
2021/03/16,07:20,0.173,0.154,0.250,0.237,0.235,0.136,0.084,��,4.0,��
2021/03/16,07:30,0.173,0.153,0.251,0.239,0.235,0.135,0.083,��,4.7,��
2021/03/16,07:40,0.173,0.154,0.251,0.238,0.235,0.135,0.084,��,3.9,��
2021/03/16,07:50,0.174,0.154,0.250,0.236,0.236,0.135,0.082,�쓌,2.6,��
2021/03/16,08:00,0.173,0.154,0.250,0.238,0.234,0.135,0.083,��쓌,1.5,��
2021/03/16,08:10,0.173,0.154,0.249,0.238,0.235,0.135,0.084,��,2.7,��
2021/03/16,08:20,0.173,0.155,0.252,0.236,0.237,0.136,0.083,��쓌,2.7,��
2021/03/16,08:30,0.173,0.154,0.252,0.238,0.236,0.135,0.083,��쐼,1.5,��
2021/03/16,08:40,0.173,0.154,0.251,0.237,0.236,0.136,0.084,��쐼,1.5,��
2021/03/16,08:50,0.172,0.154,0.251,0.238,0.236,0.136,0.083,��,1.3,��
2021/03/16,09:00,0.173,0.154,0.252,0.238,0.235,0.134,0.084,��쓌,1.3,��
2021/03/16,09:10,0.173,0.155,0.250,0.237,0.237,0.135,0.083,��쐼,1.0,��
2021/03/16,09:20,0.173,0.155,0.251,0.237,0.235,0.136,0.083,��,1.5,��
2021/03/16,09:30,0.172,0.153,0.251,0.238,0.237,0.136,0.084,��쓌,3.4,��
2021/03/16,09:40,0.173,0.154,0.251,0.237,0.234,0.135,0.084,��쓌,4.2,��
2021/03/16,09:50,0.172,0.154,0.252,0.237,0.236,0.135,0.083,��쓌,3.7,��
2021/03/16,10:00,0.173,0.153,0.251,0.237,0.235,0.135,0.084,��,3.5,��
2021/03/16,10:10,0.171,0.154,0.251,0.237,0.236,0.135,0.084,��,3.3,��
2021/03/16,10:20,0.172,0.153,0.249,0.236,0.233,0.134,0.084,��,3.9,��
2021/03/16,10:30,0.170,0.154,0.250,0.237,0.237,0.136,0.083,��쓌,4.0,��
2021/03/16,10:40,0.172,0.154,0.250,0.236,0.234,0.135,0.084,��쓌,4.2,��
2021/03/16,10:50,0.172,0.153,0.252,0.237,0.236,0.136,0.083,��쓌,4.9,��
2021/03/16,11:00,0.173,0.153,0.251,0.238,0.233,0.135,0.084,��,5.3,��
2021/03/16,11:10,0.171,0.154,0.251,0.237,0.237,0.136,0.083,��쓌,4.7,��
2021/03/16,11:20,0.172,0.153,0.250,0.237,0.234,0.134,0.083,��쓌,5.8,��
2021/03/16,11:30,0.172,0.153,0.251,0.237,0.235,0.135,0.083,��쓌,7.0,��
2021/03/16,11:40,0.171,0.153,0.249,0.237,0.236,0.135,0.084,��쓌,5.9,��
2021/03/16,11:50,0.172,0.154,0.251,0.236,0.233,0.136,0.083,��쓌,5.9,��
2021/03/16,12:00,0.170,0.154,0.249,0.237,0.237,0.135,0.083,��쓌,6.2,��
2021/03/16,12:10,0.173,0.154,0.251,0.238,0.235,0.135,0.084,��쓌,8.1,��
2021/03/16,12:20,0.172,0.154,0.251,0.236,0.235,0.135,0.083,��,6.5,��
2021/03/16,12:30,0.170,0.153,0.250,0.238,0.234,0.135,0.084,��쓌,7.1,��
2021/03/16,12:40,0.172,0.154,0.252,0.237,0.234,0.135,0.083,��,6.7,��
2021/03/16,12:50,0.171,0.153,0.248,0.238,0.236,0.135,0.083,��쓌,6.3,��
2021/03/16,13:00,0.173,0.154,0.252,0.237,0.234,0.135,0.083,��쓌,6.3,��
2021/03/16,13:10,0.172,0.153,0.251,0.238,0.236,0.134,0.083,��쓌,6.1,��
2021/03/16,13:20,0.173,0.154,0.252,0.238,0.235,0.136,0.083,��,5.6,��
2021/03/16,13:30,0.172,0.153,0.251,0.238,0.238,0.135,0.083,��,5.9,��
2021/03/16,13:40,0.172,0.154,0.252,0.238,0.236,0.136,0.083,��쓌,6.0,��
2021/03/16,13:50,0.173,0.154,0.252,0.237,0.236,0.134,0.082,��쓌,5.3,��
2021/03/16,14:00,0.172,0.155,0.250,0.237,0.236,0.137,0.083,��쓌,5.0,��
2021/03/16,14:10,0.172,0.154,0.252,0.236,0.234,0.135,0.083,��,3.8,��
2021/03/16,14:20,0.173,0.154,0.250,0.239,0.236,0.135,0.083,��쓌,2.5,��
2021/03/16,14:30,0.172,0.154,0.249,0.237,0.235,0.135,0.083,��,1.6,��
2021/03/16,14:40,0.172,0.154,0.250,0.235,0.232,0.135,0.082,��쓌,1.7,��
2021/03/16,14:50,0.173,0.154,0.249,0.237,0.234,0.136,0.083,��쓌,1.4,��
2021/03/16,15:00,0.171,0.153,0.251,0.236,0.236,0.134,0.083,��쓌,1.5,��
2021/03/16,15:10,0.171,0.154,0.250,0.237,0.232,0.135,0.083,-,CALM,��
2021/03/16,15:20,0.173,0.154,0.253,0.236,0.237,0.136,0.083,��쓌,1.0,��
2021/03/16,15:30,0.172,0.154,0.251,0.239,0.235,0.135,0.083,��쓌,0.9,��
2021/03/16,15:40,0.173,0.154,0.253,0.238,0.238,0.136,0.083,-,CALM,��
2021/03/16,15:50,0.173,0.154,0.251,0.239,0.235,0.135,0.083,��쓌,0.7,��
2021/03/16,16:00,0.173,0.155,0.252,0.238,0.236,0.136,0.083,��,1.7,��
2021/03/16,16:10,0.172,0.154,0.251,0.238,0.236,0.136,0.083,��,2.4,��
2021/03/16,16:20,0.173,0.154,0.252,0.238,0.236,0.136,0.083,��,1.4,��
2021/03/16,16:30,0.173,0.154,0.253,0.238,0.236,0.135,0.083,�쐼,0.9,��
2021/03/16,16:40,0.172,0.153,0.251,0.237,0.236,0.135,0.083,���쐼,1.1,��
2021/03/16,16:50,0.173,0.154,0.252,0.239,0.236,0.136,0.083,���k��,1.0,��
2021/03/16,17:00,0.172,0.154,0.251,0.238,0.236,0.135,0.083,���k��,0.9,��
2021/03/16,17:10,0.173,0.154,0.251,0.238,0.236,0.135,0.083,��,1.8,��
2021/03/16,17:20,0.172,0.153,0.251,0.238,0.237,0.135,0.084,�쐼,1.5,��
2021/03/16,17:30,0.173,0.154,0.250,0.238,0.235,0.134,0.083,��,0.7,��
2021/03/16,17:40,0.172,0.154,0.252,0.240,0.236,0.136,0.083,���k��,1.6,��
2021/03/16,17:50,0.172,0.154,0.252,0.237,0.235,0.135,0.083,��,1.9,��
2021/03/16,18:00,0.174,0.155,0.253,0.238,0.237,0.136,0.084,���쐼,1.8,��
2021/03/16,18:10,0.173,0.154,0.253,0.238,0.237,0.136,0.084,�쐼,0.8,��
2021/03/16,18:20,0.173,0.154,0.252,0.238,0.236,0.135,0.083,��쐼,1.3,��
2021/03/16,18:30,0.172,0.154,0.252,0.238,0.237,0.136,0.082,�쐼,2.2,��
2021/03/16,18:40,0.172,0.154,0.252,0.238,0.236,0.136,0.083,�쐼,1.8,��
2021/03/16,18:50,0.173,0.154,0.252,0.239,0.237,0.136,0.084,���쐼,1.5,��
2021/03/16,19:00,0.173,0.154,0.252,0.239,0.236,0.136,0.083,�쐼,0.9,��
2021/03/16,19:10,0.172,0.155,0.251,0.238,0.236,0.135,0.083,���k��,1.1,��
2021/03/16,19:20,0.173,0.154,0.251,0.239,0.236,0.136,0.083,���k��,1.2,��
2021/03/16,19:30,0.173,0.154,0.251,0.239,0.237,0.136,0.083,�k�k��,1.8,��
2021/03/16,19:40,0.174,0.154,0.250,0.238,0.237,0.136,0.083,�k�k��,2.5,��
2021/03/16,19:50,0.172,0.155,0.251,0.239,0.236,0.136,0.083,�k�k��,3.4,��
2021/03/16,20:00,0.173,0.155,0.252,0.239,0.236,0.136,0.083,�k��,3.9,��
2021/03/16,20:10,0.173,0.154,0.252,0.239,0.236,0.136,0.084,���k��,4.5,��
2021/03/16,20:20,0.172,0.155,0.252,0.239,0.235,0.136,0.084,���k��,6.9,��
2021/03/16,20:30,0.173,0.155,0.253,0.237,0.237,0.136,0.083,��,6.1,��
2021/03/16,20:40,0.173,0.154,0.252,0.239,0.236,0.137,0.083,���k��,5.7,��
2021/03/16,20:50,0.172,0.154,0.251,0.239,0.237,0.135,0.083,���k��,6.1,��
2021/03/16,21:00,0.173,0.155,0.251,0.237,0.236,0.136,0.084,���k��,5.3,��
2021/03/16,21:10,0.172,0.154,0.251,0.237,0.236,0.136,0.083,���k��,3.1,��
2021/03/16,21:20,0.172,0.155,0.250,0.239,0.237,0.136,0.084,���k��,5.2,��
2021/03/16,21:30,0.173,0.154,0.252,0.237,0.236,0.135,0.083,���k��,6.2,��
2021/03/16,21:40,0.172,0.154,0.252,0.239,0.237,0.136,0.082,���k��,5.2,��
2021/03/16,21:50,0.174,0.154,0.252,0.238,0.237,0.134,0.083,���k��,5.9,��
2021/03/16,22:00,0.173,0.155,0.251,0.237,0.235,0.135,0.083,���k��,7.2,��
2021/03/16,22:10,0.173,0.154,0.252,0.239,0.237,0.135,0.084,���k��,7.3,��
2021/03/16,22:20,0.173,0.155,0.251,0.239,0.235,0.135,0.083,���k��,10.0,��
2021/03/16,22:30,0.172,0.153,0.252,0.239,0.236,0.135,0.083,���k��,8.4,��
2021/03/16,22:40,0.174,0.155,0.253,0.239,0.236,0.135,0.083,���k��,8.7,��
2021/03/16,22:50,0.173,0.154,0.252,0.238,0.235,0.136,0.084,���k��,5.5,��
2021/03/16,23:00,0.173,0.155,0.253,0.239,0.237,0.135,0.083,�k��,2.7,��
2021/03/16,23:10,0.174,0.154,0.253,0.238,0.236,0.135,0.083,�쓌,1.2,��
2021/03/16,23:20,0.172,0.154,0.251,0.238,0.237,0.136,0.083,�k��,1.6,��
2021/03/16,23:30,0.173,0.154,0.252,0.238,0.236,0.136,0.083,���k��,1.8,��
2021/03/16,23:40,0.173,0.154,0.254,0.239,0.235,0.135,0.082,�k��,3.3,��
2021/03/16,23:50,0.173,0.154,0.250,0.237,0.237,0.135,0.082,�k��,2.0,��
